Regional Weather Roundup
Issued by NWS

Home | Current Version | Previous Version | Text Only | Print | Product List | Glossary Off
Versions: 1 2 3 4 5 6 7 8 9 10 11 12 13 14 15 16 17 18 19 20 21 22 23 24 25 26 27 28 29 30 31 32 33 34 35 36 37 38 39 40 41 42 43 44 45 46 47 48 49 50

115
ASUS43 KLOT 231208
RWRIL

ILLINOIS REGIONAL WEATHER ROUNDUP
NATIONAL WEATHER SERVICE CHICAGO/ROMEOVILLE IL
700 AM CDT SAT JUL 23 2016

NOTE: "FAIR" INDICATES FEW OR NO CLOUDS BELOW 12,000 FEET WITH NO
SIGNIFICANT WEATHER AND/OR OBSTRUCTIONS TO VISIBILITY.

* THESE STATIONS ARE NOT UNDER NWS QUALITY CONTROL. THEY ALSO MAY NOT
  REPORT WEATHER SUCH AS PRECIPITATION OR FOG.

ILZ001-002-007-009-015-016-024-231300-
NORTHWEST ILLINOIS

CITY           SKY/WX    TMP DP  RH WIND       PRES   REMARKS
MOLINE         SUNNY     78  74  87 E3        29.97R HX  81
6HR MIN TEMP:  75; 6HR MAX TEMP:  79;

STERLING*      CLOUDY    76  76 100 E3        29.99R
SAVANNA*       PTSUNNY   76  75  98 CALM      29.98R
$$

ILZ003-004-008-010-011-017-018-231300-
NORTH CENTRAL ILLINOIS

CITY           SKY/WX    TMP DP  RH WIND       PRES   REMARKS
ROCKFORD       MOSUNNY   76  74  93 S3        30.00F
6HR MIN TEMP:  74; 6HR MAX TEMP:  78;

FREEPORT*      SUNNY     73  72  98 CALM      30.01S FOG
ROCHELLE*      CLOUDY    74  74 100 CALM      30.00S FOG
DE KALB*       SUNNY     76  75  97 CALM      30.01S
$$

ILZ005-006-012>014-019>023-231300-
NORTHEAST ILLINOIS

CITY           SKY/WX    TMP DP  RH WIND       PRES   REMARKS
CHICAGO-OHARE  PTSUNNY   80  75  84 NW5       29.99R HX  85
6HR MIN TEMP:  77; 6HR MAX TEMP:  81;

CHICAGO-MIDWAY PTSUNNY   81  75  82 W5        29.99R HX  87
6HR MIN TEMP:  79; 6HR MAX TEMP:  83;

AURORA         PTSUNNY   76  74  93 CALM      30.00S FOG
6HR MIN TEMP:  72; 6HR MAX TEMP:  79;

LANSING*       CLOUDY    77  74  91 W3        30.00R
JOLIET*        SUNNY     77  77  99 CALM      30.00S
WAUKEGAN       SUNNY     78  76  93 SW3       29.99S HX  81
6HR MIN TEMP:  76; 6HR MAX TEMP:  78;

DUPAGE AIRPORT SUNNY     77  74  90 CALM      30.00S
6HR MIN TEMP:  75; 6HR MAX TEMP:  79;

WHEELING       CLOUDY    80  75  84 CALM      30.00R HX  85
6HR MIN TEMP:  78; 6HR MAX TEMP:  82;

MORRIS*        SUNNY     76  75  96 CALM      29.99S FOG
ROMEOVILLE*    MOSUNNY   76  75  97 CALM      30.01S FOG
NORTHERLY ISL    N/A     80  73  79 W2          N/A  HX  84
$$

LMZ740>746-231300-
SOUTHERN LAKE MICHIGAN

STATION/POSITION SKY/WX   TEMP    WIND        PRES    VSBY  WAVE
                          AIR SEA DIR/SP/G                  HT/PER
                          (F)     (DEG/KT/KT) (MB)    (MI)  (FT/S)
SOUTHERN BUOY              74 73  200/  4/  6 1014.8R         0
WILMETTE HARBOR            72 69  340/  2/  4   N/A           0
HARRISON CRIB              81     280/  4/  5   N/A
BURNHAM HARBOR             81     280/  6/  6   N/A
CALUMET HARBOR             79     230/  3/  4 1014.8R
BURNS HARBOR               78     220/  5/  6 1015.9R
MICHIGAN CITY              76     190/  6/  6   N/A
MICHIGAN CITY 6N           76 74  250/  4/  4   N/A           0
ST. JOSEPH                 76 75  170/  4/  4 1015.4R         0
$$

ILZ025>027-034>036-040-047-049-050-058-095>099-231300-
WEST-CENTRAL ILLINOIS

CITY           SKY/WX    TMP DP  RH WIND       PRES   REMARKS
QUINCY         SUNNY     76  72  87 CALM      29.97R
GALESBURG*     SUNNY     74  74  99 SE3       29.98S
MACOMB*        FOG       73  73 100 CALM      30.01R VSB 1/4
JACKSONVILLE*  SUNNY     74  73  95 CALM      29.98S
PITTSFIELD*    SUNNY     75  74  97 CALM      29.99S
$$

ILZ028>032-037-038-041>044-048-051>054-059>061-231300-
CENTRAL ILLINOIS

CITY           SKY/WX    TMP DP  RH WIND       PRES   REMARKS
PONTIAC        SUNNY     76  76  98 CALM      30.00S
BLOOMINGTON    SUNNY     75  72  90 VRB3      30.02R
DECATUR        SUNNY     76  73  91 CALM      30.01R
PEORIA         MOSUNNY   77  76  96 S6        29.99S
6HR MIN TEMP:  75; 6HR MAX TEMP:  78;

LACON*         SUNNY     76  74  92 CALM      29.98S
LINCOLN*       SUNNY     74  73  99 CALM      30.00S
SPRINGFIELD    SUNNY     76  74  93 CALM      29.99S
6HR MIN TEMP:  73; 6HR MAX TEMP:  78;

TAYLORVILLE    SUNNY     73  73 100 CALM      30.00S
6HR MIN TEMP:  70; 6HR MAX TEMP:  74;

$$

ILZ033-039-045-046-055>057-062-063-231300-
EAST-CENTRAL ILLINOIS

CITY           SKY/WX    TMP DP  RH WIND       PRES   REMARKS
CHAMPAIGN      SUNNY     75  72  90 CALM      30.03R
MATTOON        SUNNY     75  72  90 CALM      30.00S
PARIS*         SUNNY     72  72 100 CALM      30.01S
$$

ILZ079-100>102-231300-
SOUTHWEST ILLINOIS

CITY           SKY/WX    TMP DP  RH WIND       PRES   REMARKS
ALTON          SUNNY     72  70  94 E6        30.01R
BELLEVILLE     SUNNY     75  75 100 CALM      29.99R
CAHOKIA*       SUNNY     76  72  87 CALM      29.99R
SPARTA*        PTSUNNY   74  73  96 CALM      30.01S
$$

ILZ064>066-069>071-074>076-080>082-084>086-088>090-092>094-231300-
SOUTH-CENTRAL ILLINOIS

CITY           SKY/WX    TMP DP  RH WIND       PRES   REMARKS
CARBONDALE     FOG       73  72  96 CALM      29.99S VSB 1/4
6HR MIN TEMP:  71; 6HR MAX TEMP:  74;

CAIRO*         MOSUNNY   73  73 100 CALM      29.98S FOG
EFFINGHAM*     SUNNY     73  73 100 CALM      30.02R FOG
MARION         PTSUNNY   77  75  94 SE3       30.00F FOG
MT. VERNON     MOSUNNY   73  70  88 N3        30.01R
CENTRALIA*     MOSUNNY   74  73  98 CALM      29.99R
SALEM*         MOSUNNY   75  74  95 CALM      30.00R
METROPOLIS*    MOSUNNY   74  74  99 CALM      29.99F FOG
$$

ILZ067-068-072-073-078-083-087-091-231300-
SOUTHEAST ILLINOIS

CITY           SKY/WX    TMP DP  RH WIND       PRES   REMARKS
LAWRENCEVILLE  FOG       74  74 100 CALM      30.01R VSB<1/4
FLORA*         MOSUNNY   74  73  97 CALM      30.00R FOG
FAIRFIELD*     PTSUNNY   74  74 100 CALM      29.99S FOG
HARRISBURG*    FOG       76  76 100 CALM      30.00S VSB<1/4
ROBINSON*      SUNNY     72  72 100 CALM      30.01F FOG
CARMI*         FOG       75  75 100 CALM      29.99S VSB 3/4
$$

ABBREVIATIONS USED IN REMARKS
   TC - TEMPERATURE IN CELSIUS
  WCI - WIND CHILL INDEX
   HX - HEAT INDEX
  VSB - VISIBILITY
$$





USA.gov is the U.S. government's official web portal to all federal, state and local government web resources and services.